Tracking 28052 objects as of 22-Sep-2023
HD Live streaming from Space Station
objects crossing your sky now

FLOCK 4Y 7

Track FLOCK 4Y 7 now!
10-day predictions
FLOCK 4Y 7 is classified as:


NORAD ID: 55032
Int'l Code: 2023-001Z
Perigee: 504.4 km
Apogee: 520.9 km
Inclination: 97.5 °
Period: 94.7 minutes
Semi major axis: 6883 km
RCS: Unknown
Launch date: January 3, 2023
Source: United States (US)
Launch site: AIR FORCE EASTERN TEST RANGE (AFETR)
Your satellite tracking list
Your tracking list is empty




NASA's NSSDC Master Catalog

Two Line Element Set (TLE):
1 55032U 23001Z   23265.12626470  .00011340  00000-0  52672-3 0  9991
2 55032  97.4666 323.9415 0011970  32.1550 328.0412 15.20105349 39806
Source of the keplerian elements: AFSPC